TimeAKST,TemperatureF,Dew PointF,Humidity,Sea Level PressureIn,VisibilityMPH,Wind Direction,Wind SpeedMPH,Gust SpeedMPH,PrecipitationIn,Events,Conditions,WindDirDegrees,DateUTC
12:53 AM,10.9,7.0,84,29.67,10.0,Calm,Calm,-,N/A,,Mostly Cloudy,0,2013-01-04 09:53:00
1:53 AM,10.9,8.1,88,29.67,10.0,Calm,Calm,-,N/A,,Mostly Cloudy,0,2013-01-04 10:53:00
3:53 AM,6.1,1.9,83,29.68,10.0,Calm,Calm,-,N/A,,Mostly Cloudy,0,2013-01-04 12:53:00
4:53 AM,-0.9,-2.9,91,29.70,10.0,NNE,3.5,-,N/A,,Mostly Cloudy,20,2013-01-04 13:53:00
5:53 AM,-0.9,-4.0,87,29.70,10.0,Calm,Calm,-,N/A,,Mostly Cloudy,0,2013-01-04 14:53:00
6:53 AM,-2.0,-4.0,91,29.71,10.0,Calm,Calm,-,N/A,,Scattered Clouds,0,2013-01-04 15:53:00
7:53 AM,-4.0,-8.0,83,29.73,10.0,Calm,Calm,-,N/A,,Mostly Cloudy,0,2013-01-04 16:53:00
8:53 AM,-2.9,-7.1,82,29.74,10.0,Calm,Calm,-,N/A,,Mostly Cloudy,0,2013-01-04 17:53:00
9:53 AM,-0.0,-4.0,83,29.75,10.0,Calm,Calm,-,N/A,,Mostly Cloudy,0,2013-01-04 18:53:00
10:53 AM,1.0,-2.9,83,29.78,10.0,Calm,Calm,-,N/A,,Mostly Cloudy,0,2013-01-04 19:53:00
11:53 AM,1.9,-2.9,80,29.80,10.0,Calm,Calm,-,N/A,,Mostly Cloudy,0,2013-01-04 20:53:00
12:20 PM,3.2,-0.4,85,29.77,10.0,Calm,Calm,-,N/A,,Mostly Cloudy,0,2013-01-04 21:20:00
12:53 PM,3.9,1.0,88,29.81,10.0,Calm,Calm,-,N/A,,Mostly Cloudy,0,2013-01-04 21:53:00
1:53 PM,6.1,1.9,83,29.82,10.0,Calm,Calm,-,N/A,,Mostly Cloudy,0,2013-01-04 22:53:00
2:53 PM,7.0,3.0,84,29.83,10.0,Calm,Calm,-,N/A,,Mostly Cloudy,0,2013-01-04 23:53:00
3:53 PM,7.0,3.0,84,29.84,10.0,Calm,Calm,-,N/A,,Mostly Cloudy,0,2013-01-05 00:53:00
4:53 PM,5.0,1.9,87,29.85,10.0,Calm,Calm,-,N/A,,Mostly Cloudy,0,2013-01-05 01:53:00
5:53 PM,1.0,-2.0,87,29.86,10.0,North,3.5,-,N/A,,Mostly Cloudy,10,2013-01-05 02:53:00
6:53 PM,1.0,-2.9,83,29.87,10.0,NE,3.5,-,N/A,,Scattered Clouds,40,2013-01-05 03:53:00
7:53 PM,-2.9,-7.1,82,29.87,10.0,Calm,Calm,-,N/A,,Scattered Clouds,0,2013-01-05 04:53:00
8:53 PM,-2.9,-7.1,82,29.86,10.0,Calm,Calm,-,N/A,,Scattered Clouds,0,2013-01-05 05:53:00
9:53 PM,-2.9,-8.0,79,29.87,10.0,Calm,Calm,-,N/A,,Scattered Clouds,0,2013-01-05 06:53:00
10:53 PM,-2.9,-7.1,82,29.88,10.0,NNE,3.5,-,N/A,,Scattered Clouds,30,2013-01-05 07:53:00
11:53 PM,-4.0,-9.0,79,29.83,10.0,Calm,Calm,-,N/A,,Scattered Clouds,0,2013-01-05 08:53:00